Location: Chemnitz
(49.5500°N, 11.5830°E)
Time: 06:28:20
(UTC+01:00)

ISS - Pass Details

Date: 14 November 2017
Orbit: 402 x 407 km, 51.6° (Epoch: 23 November)

Event Time Altitude Azimuth Distance (km) Brightness Sun altitude
Exits shadow 04:12:25 12° 92° (E) 1,358 -0.3 -30.8°
Drops below altitude 10° 04:12:40 10° 92° (E) 1,456 -0.2 -30.8°
Sets 04:14:45 0° 96° (E) 2,314 1.1 -30.5°
